<?xml version="1.0" encoding="UTF-8" standalone="no" ?>
<gpx xmlns="http://www.topografix.com/GPX/1/1" xmlns:xsi="http://www.w3.org/2001/XMLSchema-instance" xsi:schemaLocation="http://www.topografix.com/GPX/1/1 http://www.topografix.com/GPX/1/1/gpx.xsd" version="1.1" creator="VisuGPX - https://www.visugpx.com">
  <metadata>
    <name>Reconstitution de mes premiers Cagire </name>
    <desc><![CDATA[grp_trc:]]></desc>
  </metadata>
  <trk>
    <name><![CDATA[Premier Cagire sur deux jours ]]></name>
    <cmt><![CDATA[15:04:56]]></cmt>
    <desc><![CDATA[comment ...]]></desc>
    <trkseg>
      <trkpt lat="43.01569" lon="0.80131">
        <ele>462</ele>
        <time>2025-01-21T14:04:56Z</time>
      </trkpt>
      <trkpt lat="43.01574" lon="0.80134">
        <ele>462</ele>
        <time>2025-01-21T14:04:56Z</time>
      </trkpt>
      <trkpt lat="43.0157" lon="0.80148">
        <ele>462.3</ele>
        <time>2025-01-21T14:04:56Z</time>
      </trkpt>
      <trkpt lat="43.0155" lon="0.80124">
        <ele>462</ele>
        <time>2025-01-21T14:04:56Z</time>
      </trkpt>
      <trkpt lat="43.01495" lon="0.80088">
        <ele>459.5</ele>
        <time>2025-01-21T14:04:56Z</time>
      </trkpt>
      <trkpt lat="43.01468" lon="0.80033">
        <ele>459.3</ele>
        <time>2025-01-21T14:04:56Z</time>
      </trkpt>
      <trkpt lat="43.01381" lon="0.79937">
        <ele>452.5</ele>
        <time>2025-01-21T14:04:56Z</time>
      </trkpt>
      <trkpt lat="43.01375" lon="0.79933">
        <ele>452.1</ele>
        <time>2025-01-21T14:04:56Z</time>
      </trkpt>
      <trkpt lat="43.0136" lon="0.79933">
        <ele>451.4</ele>
        <time>2025-01-21T14:04:56Z</time>
      </trkpt>
      <trkpt lat="43.01329" lon="0.79957">
        <ele>447.7</ele>
        <time>2025-01-21T14:04:56Z</time>
      </trkpt>
      <trkpt lat="43.01319" lon="0.79959">
        <ele>445.8</ele>
        <time>2025-01-21T14:04:56Z</time>
      </trkpt>
      <trkpt lat="43.01317" lon="0.79904">
        <ele>443.4</ele>
        <time>2025-01-21T14:04:56Z</time>
      </trkpt>
      <trkpt lat="43.01309" lon="0.79879">
        <ele>440.6</ele>
        <time>2025-01-21T14:04:56Z</time>
      </trkpt>
      <trkpt lat="43.01304" lon="0.7987">
        <ele>439.3</ele>
        <time>2025-01-21T14:04:56Z</time>
      </trkpt>
      <trkpt lat="43.01295" lon="0.79862">
        <ele>438.7</ele>
        <time>2025-01-21T14:04:56Z</time>
      </trkpt>
      <trkpt lat="43.01274" lon="0.79855">
        <ele>437.8</ele>
        <time>2025-01-21T14:04:56Z</time>
      </trkpt>
      <trkpt lat="43.01117" lon="0.79842">
        <ele>441</ele>
        <time>2025-01-21T14:04:56Z</time>
      </trkpt>
      <trkpt lat="43.01078" lon="0.79855">
        <ele>442.7</ele>
        <time>2025-01-21T14:04:56Z</time>
      </trkpt>
      <trkpt lat="43.00878" lon="0.7993">
        <ele>447.5</ele>
        <time>2025-01-21T14:04:56Z</time>
      </trkpt>
      <trkpt lat="43.00854" lon="0.79925">
        <ele>446.2</ele>
        <time>2025-01-21T14:04:56Z</time>
      </trkpt>
      <trkpt lat="43.00854" lon="0.79929">
        <ele>447.3</ele>
        <time>2025-01-21T14:04:56Z</time>
      </trkpt>
      <trkpt lat="43.00356" lon="0.79837">
        <ele>450</ele>
        <time>2025-01-21T14:04:56Z</time>
      </trkpt>
      <trkpt lat="42.99208" lon="0.79162">
        <ele>470.2</ele>
        <time>2025-01-21T14:04:56Z</time>
      </trkpt>
      <trkpt lat="42.99145" lon="0.79148">
        <ele>472</ele>
        <time>2025-01-21T14:04:56Z</time>
      </trkpt>
      <trkpt lat="42.9905" lon="0.79105">
        <ele>472.4</ele>
        <time>2025-01-21T14:04:56Z</time>
      </trkpt>
      <trkpt lat="42.99021" lon="0.79104">
        <ele>471.1</ele>
        <time>2025-01-21T14:04:56Z</time>
      </trkpt>
      <trkpt lat="42.98783" lon="0.79152">
        <ele>478.4</ele>
        <time>2025-01-21T14:04:56Z</time>
      </trkpt>
      <trkpt lat="42.98745" lon="0.79179">
        <ele>482</ele>
        <time>2025-01-21T14:04:56Z</time>
      </trkpt>
      <trkpt lat="42.98723" lon="0.79206">
        <ele>480.3</ele>
        <time>2025-01-21T14:04:56Z</time>
      </trkpt>
      <trkpt lat="42.98657" lon="0.79238">
        <ele>479.8</ele>
        <time>2025-01-21T14:04:56Z</time>
      </trkpt>
      <trkpt lat="42.98636" lon="0.79242">
        <ele>478.8</ele>
        <time>2025-01-21T14:04:56Z</time>
      </trkpt>
      <trkpt lat="42.98613" lon="0.79236">
        <ele>478.6</ele>
        <time>2025-01-21T14:04:56Z</time>
      </trkpt>
      <trkpt lat="42.98316" lon="0.79106">
        <ele>484.2</ele>
        <time>2025-01-21T14:04:56Z</time>
      </trkpt>
      <trkpt lat="42.98214" lon="0.79079">
        <ele>488.3</ele>
        <time>2025-01-21T14:04:56Z</time>
      </trkpt>
      <trkpt lat="42.9817" lon="0.7906">
        <ele>491.5</ele>
        <time>2025-01-21T14:04:56Z</time>
      </trkpt>
      <trkpt lat="42.98152" lon="0.7906">
        <ele>495.3</ele>
        <time>2025-01-21T14:04:56Z</time>
      </trkpt>
      <trkpt lat="42.98102" lon="0.79072">
        <ele>499.4</ele>
        <time>2025-01-21T14:04:56Z</time>
      </trkpt>
      <trkpt lat="42.98094" lon="0.79066">
        <ele>500.2</ele>
        <time>2025-01-21T14:04:56Z</time>
      </trkpt>
      <trkpt lat="42.98085" lon="0.79038">
        <ele>506.5</ele>
        <time>2025-01-21T14:04:56Z</time>
      </trkpt>
      <trkpt lat="42.98077" lon="0.79007">
        <ele>509.1</ele>
        <time>2025-01-21T14:04:56Z</time>
      </trkpt>
      <trkpt lat="42.98069" lon="0.78976">
        <ele>511.5</ele>
        <time>2025-01-21T14:04:56Z</time>
      </trkpt>
      <trkpt lat="42.98062" lon="0.78921">
        <ele>515.4</ele>
        <time>2025-01-21T14:04:56Z</time>
      </trkpt>
      <trkpt lat="42.98043" lon="0.78873">
        <ele>519.7</ele>
        <time>2025-01-21T14:04:56Z</time>
      </trkpt>
      <trkpt lat="42.98041" lon="0.78862">
        <ele>521.7</ele>
        <time>2025-01-21T14:04:56Z</time>
      </trkpt>
      <trkpt lat="42.98041" lon="0.78848">
        <ele>525</ele>
        <time>2025-01-21T14:04:56Z</time>
      </trkpt>
      <trkpt lat="42.9801" lon="0.78851">
        <ele>519.8</ele>
        <time>2025-01-21T14:04:56Z</time>
      </trkpt>
      <trkpt lat="42.97856" lon="0.78833">
        <ele>504.6</ele>
        <time>2025-01-21T14:04:56Z</time>
      </trkpt>
      <trkpt lat="42.97818" lon="0.78848">
        <ele>504</ele>
        <time>2025-01-21T14:04:56Z</time>
      </trkpt>
      <trkpt lat="42.97783" lon="0.78872">
        <ele>501.8</ele>
        <time>2025-01-21T14:04:56Z</time>
      </trkpt>
      <trkpt lat="42.97705" lon="0.78887">
        <ele>498.1</ele>
        <time>2025-01-21T14:04:56Z</time>
      </trkpt>
      <trkpt lat="42.97684" lon="0.78905">
        <ele>498</ele>
        <time>2025-01-21T14:04:56Z</time>
      </trkpt>
      <trkpt lat="42.97629" lon="0.7892">
        <ele>496</ele>
        <time>2025-01-21T14:04:56Z</time>
      </trkpt>
      <trkpt lat="42.97607" lon="0.78919">
        <ele>495.2</ele>
        <time>2025-01-21T14:04:56Z</time>
      </trkpt>
      <trkpt lat="42.97484" lon="0.78858">
        <ele>498.5</ele>
        <time>2025-01-21T14:04:56Z</time>
      </trkpt>
      <trkpt lat="42.97459" lon="0.78863">
        <ele>499.3</ele>
        <time>2025-01-21T14:04:56Z</time>
      </trkpt>
      <trkpt lat="42.97258" lon="0.78966">
        <ele>508</ele>
        <time>2025-01-21T14:04:56Z</time>
      </trkpt>
      <trkpt lat="42.9721" lon="0.79022">
        <ele>508.6</ele>
        <time>2025-01-21T14:04:56Z</time>
      </trkpt>
      <trkpt lat="42.97186" lon="0.79038">
        <ele>509.5</ele>
        <time>2025-01-21T14:04:56Z</time>
      </trkpt>
      <trkpt lat="42.97049" lon="0.79093">
        <ele>509.3</ele>
        <time>2025-01-21T14:04:56Z</time>
      </trkpt>
      <trkpt lat="42.97049" lon="0.79091">
        <ele>509.4</ele>
        <time>2025-01-21T14:04:56Z</time>
      </trkpt>
      <trkpt lat="42.96958" lon="0.79129">
        <ele>512.3</ele>
        <time>2025-01-21T14:04:56Z</time>
      </trkpt>
      <trkpt lat="42.96922" lon="0.79127">
        <ele>513</ele>
        <time>2025-01-21T14:04:56Z</time>
      </trkpt>
      <trkpt lat="42.96879" lon="0.79115">
        <ele>513</ele>
        <time>2025-01-21T14:04:56Z</time>
      </trkpt>
      <trkpt lat="42.96861" lon="0.79119">
        <ele>513.2</ele>
        <time>2025-01-21T14:04:56Z</time>
      </trkpt>
      <trkpt lat="42.96797" lon="0.79164">
        <ele>515.5</ele>
        <time>2025-01-21T14:04:56Z</time>
      </trkpt>
      <trkpt lat="42.96698" lon="0.79281">
        <ele>526.5</ele>
        <time>2025-01-21T14:04:56Z</time>
      </trkpt>
      <trkpt lat="42.96685" lon="0.79306">
        <ele>531</ele>
        <time>2025-01-21T14:04:56Z</time>
      </trkpt>
      <trkpt lat="42.96663" lon="0.79427">
        <ele>537</ele>
        <time>2025-01-21T14:04:56Z</time>
      </trkpt>
      <trkpt lat="42.96658" lon="0.79437">
        <ele>538.1</ele>
        <time>2025-01-21T14:04:56Z</time>
      </trkpt>
      <trkpt lat="42.96651" lon="0.79444">
        <ele>539.1</ele>
        <time>2025-01-21T14:04:56Z</time>
      </trkpt>
      <trkpt lat="42.96643" lon="0.79448">
        <ele>540.7</ele>
        <time>2025-01-21T14:04:56Z</time>
      </trkpt>
      <trkpt lat="42.96425" lon="0.79442">
        <ele>556.4</ele>
        <time>2025-01-21T14:04:56Z</time>
      </trkpt>
      <trkpt lat="42.9641" lon="0.7945">
        <ele>557.2</ele>
        <time>2025-01-21T14:04:56Z</time>
      </trkpt>
      <trkpt lat="42.96349" lon="0.79507">
        <ele>560.2</ele>
        <time>2025-01-21T14:04:56Z</time>
      </trkpt>
      <trkpt lat="42.96263" lon="0.79627">
        <ele>560.9</ele>
        <time>2025-01-21T14:04:56Z</time>
      </trkpt>
      <trkpt lat="42.96251" lon="0.79637">
        <ele>557.8</ele>
        <time>2025-01-21T14:04:56Z</time>
      </trkpt>
      <trkpt lat="42.96225" lon="0.79649">
        <ele>557.9</ele>
        <time>2025-01-21T14:04:56Z</time>
      </trkpt>
      <trkpt lat="42.96193" lon="0.79654">
        <ele>559.8</ele>
        <time>2025-01-21T14:04:56Z</time>
      </trkpt>
      <trkpt lat="42.96176" lon="0.79666">
        <ele>560.5</ele>
        <time>2025-01-21T14:04:56Z</time>
      </trkpt>
      <trkpt lat="42.9613" lon="0.79723">
        <ele>558.5</ele>
        <time>2025-01-21T14:04:56Z</time>
      </trkpt>
      <trkpt lat="42.96111" lon="0.79734">
        <ele>558.5</ele>
        <time>2025-01-21T14:04:56Z</time>
      </trkpt>
      <trkpt lat="42.96064" lon="0.79744">
        <ele>558.8</ele>
        <time>2025-01-21T14:04:56Z</time>
      </trkpt>
      <trkpt lat="42.95973" lon="0.79735">
        <ele>569.4</ele>
        <time>2025-01-21T14:04:56Z</time>
      </trkpt>
      <trkpt lat="42.95962" lon="0.79727">
        <ele>572.6</ele>
        <time>2025-01-21T14:04:56Z</time>
      </trkpt>
      <trkpt lat="42.95945" lon="0.79683">
        <ele>577.5</ele>
        <time>2025-01-21T14:04:56Z</time>
      </trkpt>
      <trkpt lat="42.95937" lon="0.79681">
        <ele>578.4</ele>
        <time>2025-01-21T14:04:56Z</time>
      </trkpt>
      <trkpt lat="42.9593" lon="0.79692">
        <ele>577</ele>
        <time>2025-01-21T14:04:56Z</time>
      </trkpt>
      <trkpt lat="42.95928" lon="0.79706">
        <ele>577.8</ele>
        <time>2025-01-21T14:04:56Z</time>
      </trkpt>
      <trkpt lat="42.9593" lon="0.79729">
        <ele>578.9</ele>
        <time>2025-01-21T14:04:56Z</time>
      </trkpt>
      <trkpt lat="42.9594" lon="0.79769">
        <ele>578.1</ele>
        <time>2025-01-21T14:04:56Z</time>
      </trkpt>
      <trkpt lat="42.95972" lon="0.79845">
        <ele>580.5</ele>
        <time>2025-01-21T14:04:56Z</time>
      </trkpt>
      <trkpt lat="42.95975" lon="0.79864">
        <ele>580.1</ele>
        <time>2025-01-21T14:04:56Z</time>
      </trkpt>
      <trkpt lat="42.95975" lon="0.79874">
        <ele>580.5</ele>
        <time>2025-01-21T14:04:56Z</time>
      </trkpt>
      <trkpt lat="42.95962" lon="0.79916">
        <ele>582.5</ele>
        <time>2025-01-21T14:04:56Z</time>
      </trkpt>
      <trkpt lat="42.95825" lon="0.80182">
        <ele>587.2</ele>
        <time>2025-01-21T14:04:56Z</time>
      </trkpt>
      <trkpt lat="42.95812" lon="0.80197">
        <ele>587.4</ele>
        <time>2025-01-21T14:04:56Z</time>
      </trkpt>
      <trkpt lat="42.95676" lon="0.80313">
        <ele>587.2</ele>
        <time>2025-01-21T14:04:56Z</time>
      </trkpt>
      <trkpt lat="42.95602" lon="0.80295">
        <ele>605.1</ele>
        <time>2025-01-21T14:04:56Z</time>
      </trkpt>
      <trkpt lat="42.95592" lon="0.80295">
        <ele>607.1</ele>
        <time>2025-01-21T14:04:56Z</time>
      </trkpt>
      <trkpt lat="42.95497" lon="0.80393">
        <ele>605.6</ele>
        <time>2025-01-21T14:04:56Z</time>
      </trkpt>
      <trkpt lat="42.95487" lon="0.80395">
        <ele>606.4</ele>
        <time>2025-01-21T14:04:56Z</time>
      </trkpt>
      <trkpt lat="42.95478" lon="0.80393">
        <ele>608.9</ele>
        <time>2025-01-21T14:04:56Z</time>
      </trkpt>
      <trkpt lat="42.95412" lon="0.80354">
        <ele>626.5</ele>
        <time>2025-01-21T14:04:56Z</time>
      </trkpt>
      <trkpt lat="42.95402" lon="0.80353">
        <ele>627</ele>
        <time>2025-01-21T14:04:56Z</time>
      </trkpt>
      <trkpt lat="42.95396" lon="0.80361">
        <ele>624.5</ele>
        <time>2025-01-21T14:04:56Z</time>
      </trkpt>
      <trkpt lat="42.954" lon="0.80378">
        <ele>621.2</ele>
        <time>2025-01-21T14:04:56Z</time>
      </trkpt>
      <trkpt lat="42.95449" lon="0.80469">
        <ele>599.4</ele>
        <time>2025-01-21T14:04:56Z</time>
      </trkpt>
      <trkpt lat="42.95449" lon="0.80498">
        <ele>599.5</ele>
        <time>2025-01-21T14:04:56Z</time>
      </trkpt>
      <trkpt lat="42.95428" lon="0.80568">
        <ele>603.7</ele>
        <time>2025-01-21T14:04:56Z</time>
      </trkpt>
      <trkpt lat="42.95389" lon="0.80652">
        <ele>605.2</ele>
        <time>2025-01-21T14:04:56Z</time>
      </trkpt>
      <trkpt lat="42.95384" lon="0.80666">
        <ele>605</ele>
        <time>2025-01-21T14:04:56Z</time>
      </trkpt>
      <trkpt lat="42.95382" lon="0.80725">
        <ele>601.5</ele>
        <time>2025-01-21T14:04:56Z</time>
      </trkpt>
      <trkpt lat="42.95404" lon="0.80852">
        <ele>597.5</ele>
        <time>2025-01-21T14:04:56Z</time>
      </trkpt>
      <trkpt lat="42.954" lon="0.80888">
        <ele>599.2</ele>
        <time>2025-01-21T14:04:56Z</time>
      </trkpt>
      <trkpt lat="42.9537" lon="0.81024">
        <ele>601.7</ele>
        <time>2025-01-21T14:04:56Z</time>
      </trkpt>
      <trkpt lat="42.9537" lon="0.8105">
        <ele>602.3</ele>
        <time>2025-01-21T14:04:56Z</time>
      </trkpt>
      <trkpt lat="42.95385" lon="0.81127">
        <ele>600</ele>
        <time>2025-01-21T14:04:56Z</time>
      </trkpt>
      <trkpt lat="42.95385" lon="0.81145">
        <ele>599.9</ele>
        <time>2025-01-21T14:04:56Z</time>
      </trkpt>
      <trkpt lat="42.95381" lon="0.81161">
        <ele>600.3</ele>
        <time>2025-01-21T14:04:56Z</time>
      </trkpt>
      <trkpt lat="42.95366" lon="0.81175">
        <ele>601.6</ele>
        <time>2025-01-21T14:04:56Z</time>
      </trkpt>
      <trkpt lat="42.95316" lon="0.81202">
        <ele>609.8</ele>
        <time>2025-01-21T14:04:56Z</time>
      </trkpt>
      <trkpt lat="42.95269" lon="0.81262">
        <ele>615</ele>
        <time>2025-01-21T14:04:56Z</time>
      </trkpt>
      <trkpt lat="42.9526" lon="0.81277">
        <ele>615.5</ele>
        <time>2025-01-21T14:04:56Z</time>
      </trkpt>
      <trkpt lat="42.9525" lon="0.8132">
        <ele>614</ele>
        <time>2025-01-21T14:04:56Z</time>
      </trkpt>
      <trkpt lat="42.95235" lon="0.8144">
        <ele>610.4</ele>
        <time>2025-01-21T14:04:56Z</time>
      </trkpt>
      <trkpt lat="42.95223" lon="0.81471">
        <ele>609.1</ele>
        <time>2025-01-21T14:04:56Z</time>
      </trkpt>
      <trkpt lat="42.95212" lon="0.81486">
        <ele>609.8</ele>
        <time>2025-01-21T14:04:56Z</time>
      </trkpt>
      <trkpt lat="42.95189" lon="0.81503">
        <ele>612</ele>
        <time>2025-01-21T14:04:56Z</time>
      </trkpt>
      <trkpt lat="42.95145" lon="0.81514">
        <ele>612.8</ele>
        <time>2025-01-21T14:04:56Z</time>
      </trkpt>
      <trkpt lat="42.95117" lon="0.81507">
        <ele>618.3</ele>
        <time>2025-01-21T14:04:56Z</time>
      </trkpt>
      <trkpt lat="42.95086" lon="0.81486">
        <ele>626.4</ele>
        <time>2025-01-21T14:04:56Z</time>
      </trkpt>
      <trkpt lat="42.95074" lon="0.81476">
        <ele>629.5</ele>
        <time>2025-01-21T14:04:56Z</time>
      </trkpt>
      <trkpt lat="42.95065" lon="0.81473">
        <ele>629.9</ele>
        <time>2025-01-21T14:04:56Z</time>
      </trkpt>
      <trkpt lat="42.95038" lon="0.81476">
        <ele>632.6</ele>
        <time>2025-01-21T14:04:56Z</time>
      </trkpt>
      <trkpt lat="42.95024" lon="0.81482">
        <ele>634</ele>
        <time>2025-01-21T14:04:56Z</time>
      </trkpt>
      <trkpt lat="42.94963" lon="0.81529">
        <ele>632.1</ele>
        <time>2025-01-21T14:04:56Z</time>
      </trkpt>
      <trkpt lat="42.94899" lon="0.81566">
        <ele>628.6</ele>
        <time>2025-01-21T14:04:56Z</time>
      </trkpt>
      <trkpt lat="42.94878" lon="0.81591">
        <ele>626.1</ele>
        <time>2025-01-21T14:04:56Z</time>
      </trkpt>
      <trkpt lat="42.94873" lon="0.81612">
        <ele>630.8</ele>
        <time>2025-01-21T14:04:56Z</time>
      </trkpt>
      <trkpt lat="42.9487" lon="0.81625">
        <ele>637.4</ele>
        <time>2025-01-21T14:04:56Z</time>
      </trkpt>
      <trkpt lat="42.94872" lon="0.81626">
        <ele>637.5</ele>
        <time>2025-01-21T14:04:56Z</time>
      </trkpt>
      <trkpt lat="42.94875" lon="0.81601">
        <ele>628.1</ele>
        <time>2025-01-21T14:04:56Z</time>
      </trkpt>
      <trkpt lat="42.94878" lon="0.81591">
        <ele>626.1</ele>
        <time>2025-01-21T14:04:56Z</time>
      </trkpt>
      <trkpt lat="42.949" lon="0.81546">
        <ele>635.6</ele>
        <time>2025-01-21T14:04:56Z</time>
      </trkpt>
      <trkpt lat="42.94969" lon="0.81463">
        <ele>667.2</ele>
        <time>2025-01-21T14:04:56Z</time>
      </trkpt>
      <trkpt lat="42.95011" lon="0.81436">
        <ele>667.2</ele>
        <time>2025-01-21T14:04:56Z</time>
      </trkpt>
      <trkpt lat="42.95082" lon="0.8143">
        <ele>659</ele>
        <time>2025-01-21T14:04:56Z</time>
      </trkpt>
      <trkpt lat="42.95124" lon="0.81417">
        <ele>667.6</ele>
        <time>2025-01-21T14:04:56Z</time>
      </trkpt>
      <trkpt lat="42.95148" lon="0.81397">
        <ele>668.4</ele>
        <time>2025-01-21T14:04:56Z</time>
      </trkpt>
      <trkpt lat="42.95184" lon="0.81216">
        <ele>687.5</ele>
        <time>2025-01-21T14:04:56Z</time>
      </trkpt>
      <trkpt lat="42.9521" lon="0.81178">
        <ele>681.1</ele>
        <time>2025-01-21T14:04:56Z</time>
      </trkpt>
      <trkpt lat="42.95213" lon="0.81132">
        <ele>694</ele>
        <time>2025-01-21T14:04:56Z</time>
      </trkpt>
      <trkpt lat="42.95189" lon="0.81015">
        <ele>719.8</ele>
        <time>2025-01-21T14:04:56Z</time>
      </trkpt>
      <trkpt lat="42.95194" lon="0.80911">
        <ele>721.3</ele>
        <time>2025-01-21T14:04:56Z</time>
      </trkpt>
      <trkpt lat="42.95165" lon="0.80755">
        <ele>753.9</ele>
        <time>2025-01-21T14:04:56Z</time>
      </trkpt>
      <trkpt lat="42.95157" lon="0.80642">
        <ele>777.7</ele>
        <time>2025-01-21T14:04:56Z</time>
      </trkpt>
      <trkpt lat="42.95159" lon="0.80622">
        <ele>781.7</ele>
        <time>2025-01-21T14:04:56Z</time>
      </trkpt>
      <trkpt lat="42.95166" lon="0.80602">
        <ele>783.7</ele>
        <time>2025-01-21T14:04:56Z</time>
      </trkpt>
      <trkpt lat="42.95196" lon="0.80574">
        <ele>773.1</ele>
        <time>2025-01-21T14:04:56Z</time>
      </trkpt>
      <trkpt lat="42.952" lon="0.80559">
        <ele>773.5</ele>
        <time>2025-01-21T14:04:56Z</time>
      </trkpt>
      <trkpt lat="42.95185" lon="0.80567">
        <ele>781.6</ele>
        <time>2025-01-21T14:04:56Z</time>
      </trkpt>
      <trkpt lat="42.95156" lon="0.80565">
        <ele>800.7</ele>
        <time>2025-01-21T14:04:56Z</time>
      </trkpt>
      <trkpt lat="42.95146" lon="0.80572">
        <ele>806</ele>
        <time>2025-01-21T14:04:56Z</time>
      </trkpt>
      <trkpt lat="42.9512" lon="0.8061">
        <ele>816.2</ele>
        <time>2025-01-21T14:04:56Z</time>
      </trkpt>
      <trkpt lat="42.95115" lon="0.80583">
        <ele>825.9</ele>
        <time>2025-01-21T14:04:56Z</time>
      </trkpt>
      <trkpt lat="42.95124" lon="0.80548">
        <ele>823.3</ele>
        <time>2025-01-21T14:04:56Z</time>
      </trkpt>
      <trkpt lat="42.95122" lon="0.80533">
        <ele>823.8</ele>
        <time>2025-01-21T14:04:56Z</time>
      </trkpt>
      <trkpt lat="42.95115" lon="0.8052">
        <ele>825.7</ele>
        <time>2025-01-21T14:04:56Z</time>
      </trkpt>
      <trkpt lat="42.95101" lon="0.80513">
        <ele>830.9</ele>
        <time>2025-01-21T14:04:56Z</time>
      </trkpt>
      <trkpt lat="42.94971" lon="0.80493">
        <ele>868</ele>
        <time>2025-01-21T14:04:56Z</time>
      </trkpt>
      <trkpt lat="42.94946" lon="0.80472">
        <ele>866.6</ele>
        <time>2025-01-21T14:04:56Z</time>
      </trkpt>
      <trkpt lat="42.94899" lon="0.80396">
        <ele>863.1</ele>
        <time>2025-01-21T14:04:56Z</time>
      </trkpt>
      <trkpt lat="42.94879" lon="0.80377">
        <ele>871.1</ele>
        <time>2025-01-21T14:04:56Z</time>
      </trkpt>
      <trkpt lat="42.94854" lon="0.8034">
        <ele>880.6</ele>
        <time>2025-01-21T14:04:56Z</time>
      </trkpt>
      <trkpt lat="42.94838" lon="0.80303">
        <ele>887</ele>
        <time>2025-01-21T14:04:56Z</time>
      </trkpt>
      <trkpt lat="42.94828" lon="0.80238">
        <ele>899.3</ele>
        <time>2025-01-21T14:04:56Z</time>
      </trkpt>
      <trkpt lat="42.94846" lon="0.80194">
        <ele>892.1</ele>
        <time>2025-01-21T14:04:56Z</time>
      </trkpt>
      <trkpt lat="42.94842" lon="0.80183">
        <ele>897.6</ele>
        <time>2025-01-21T14:04:56Z</time>
      </trkpt>
      <trkpt lat="42.94839" lon="0.80156">
        <ele>905.7</ele>
        <time>2025-01-21T14:04:56Z</time>
      </trkpt>
      <trkpt lat="42.9484" lon="0.80126">
        <ele>912</ele>
        <time>2025-01-21T14:04:56Z</time>
      </trkpt>
      <trkpt lat="42.94851" lon="0.801">
        <ele>911.2</ele>
        <time>2025-01-21T14:04:56Z</time>
      </trkpt>
      <trkpt lat="42.94869" lon="0.80085">
        <ele>905.2</ele>
        <time>2025-01-21T14:04:56Z</time>
      </trkpt>
      <trkpt lat="42.94883" lon="0.80066">
        <ele>901.4</ele>
        <time>2025-01-21T14:04:56Z</time>
      </trkpt>
      <trkpt lat="42.94888" lon="0.80039">
        <ele>903.4</ele>
        <time>2025-01-21T14:04:56Z</time>
      </trkpt>
      <trkpt lat="42.94887" lon="0.80013">
        <ele>908.9</ele>
        <time>2025-01-21T14:04:56Z</time>
      </trkpt>
      <trkpt lat="42.94877" lon="0.7999">
        <ele>919.7</ele>
        <time>2025-01-21T14:04:56Z</time>
      </trkpt>
      <trkpt lat="42.94884" lon="0.79912">
        <ele>934.3</ele>
        <time>2025-01-21T14:04:56Z</time>
      </trkpt>
      <trkpt lat="42.94913" lon="0.79862">
        <ele>934.9</ele>
        <time>2025-01-21T14:04:56Z</time>
      </trkpt>
      <trkpt lat="42.94938" lon="0.79857">
        <ele>929</ele>
        <time>2025-01-21T14:04:56Z</time>
      </trkpt>
      <trkpt lat="42.94942" lon="0.79839">
        <ele>933.8</ele>
        <time>2025-01-21T14:04:56Z</time>
      </trkpt>
      <trkpt lat="42.94932" lon="0.79827">
        <ele>939.6</ele>
        <time>2025-01-21T14:04:56Z</time>
      </trkpt>
      <trkpt lat="42.94879" lon="0.79814">
        <ele>962.7</ele>
        <time>2025-01-21T14:04:56Z</time>
      </trkpt>
      <trkpt lat="42.94858" lon="0.79789">
        <ele>978.6</ele>
        <time>2025-01-21T14:04:56Z</time>
      </trkpt>
      <trkpt lat="42.94847" lon="0.79762">
        <ele>986.3</ele>
        <time>2025-01-21T14:04:56Z</time>
      </trkpt>
      <trkpt lat="42.94844" lon="0.79734">
        <ele>984.8</ele>
        <time>2025-01-21T14:04:56Z</time>
      </trkpt>
      <trkpt lat="42.94834" lon="0.79707">
        <ele>982.9</ele>
        <time>2025-01-21T14:04:56Z</time>
      </trkpt>
      <trkpt lat="42.9466" lon="0.79628">
        <ele>1013.7</ele>
        <time>2025-01-21T14:04:56Z</time>
      </trkpt>
      <trkpt lat="42.94645" lon="0.79615">
        <ele>1013.5</ele>
        <time>2025-01-21T14:04:56Z</time>
      </trkpt>
      <trkpt lat="42.94621" lon="0.79575">
        <ele>1007</ele>
        <time>2025-01-21T14:04:56Z</time>
      </trkpt>
      <trkpt lat="42.94502" lon="0.79503">
        <ele>1011</ele>
        <time>2025-01-21T14:04:56Z</time>
      </trkpt>
      <trkpt lat="42.94406" lon="0.79489">
        <ele>1012.8</ele>
        <time>2025-01-21T14:04:56Z</time>
      </trkpt>
      <trkpt lat="42.94293" lon="0.79499">
        <ele>1014</ele>
        <time>2025-01-21T14:04:56Z</time>
      </trkpt>
      <trkpt lat="42.94164" lon="0.79544">
        <ele>1024.1</ele>
        <time>2025-01-21T14:04:56Z</time>
      </trkpt>
      <trkpt lat="42.94131" lon="0.79572">
        <ele>1035.3</ele>
        <time>2025-01-21T14:04:56Z</time>
      </trkpt>
      <trkpt lat="42.94068" lon="0.79577">
        <ele>1036.6</ele>
        <time>2025-01-21T14:04:56Z</time>
      </trkpt>
      <trkpt lat="42.93892" lon="0.79551">
        <ele>1044.2</ele>
        <time>2025-01-21T14:04:56Z</time>
      </trkpt>
      <trkpt lat="42.93885" lon="0.79543">
        <ele>1045.8</ele>
        <time>2025-01-21T14:04:56Z</time>
      </trkpt>
      <trkpt lat="42.93818" lon="0.79412">
        <ele>1059.6</ele>
        <time>2025-01-21T14:04:56Z</time>
      </trkpt>
      <trkpt lat="42.93755" lon="0.79328">
        <ele>1073.4</ele>
        <time>2025-01-21T14:04:56Z</time>
      </trkpt>
      <trkpt lat="42.937" lon="0.79281">
        <ele>1073.8</ele>
        <time>2025-01-21T14:04:56Z</time>
      </trkpt>
      <trkpt lat="42.93692" lon="0.79269">
        <ele>1071.8</ele>
        <time>2025-01-21T14:04:56Z</time>
      </trkpt>
      <trkpt lat="42.93688" lon="0.79257">
        <ele>1069.8</ele>
        <time>2025-01-21T14:04:56Z</time>
      </trkpt>
      <trkpt lat="42.93688" lon="0.7921">
        <ele>1070.3</ele>
        <time>2025-01-21T14:04:56Z</time>
      </trkpt>
      <trkpt lat="42.93708" lon="0.79061">
        <ele>1085.7</ele>
        <time>2025-01-21T14:04:56Z</time>
      </trkpt>
      <trkpt lat="42.93708" lon="0.78996">
        <ele>1087.7</ele>
        <time>2025-01-21T14:04:56Z</time>
      </trkpt>
      <trkpt lat="42.93705" lon="0.78969">
        <ele>1089.8</ele>
        <time>2025-01-21T14:04:56Z</time>
      </trkpt>
      <trkpt lat="42.93693" lon="0.78942">
        <ele>1095.6</ele>
        <time>2025-01-21T14:04:56Z</time>
      </trkpt>
      <trkpt lat="42.93625" lon="0.78838">
        <ele>1137.1</ele>
        <time>2025-01-21T14:04:56Z</time>
      </trkpt>
      <trkpt lat="42.93597" lon="0.78822">
        <ele>1142.2</ele>
        <time>2025-01-21T14:04:56Z</time>
      </trkpt>
      <trkpt lat="42.93583" lon="0.78806">
        <ele>1145.6</ele>
        <time>2025-01-21T14:04:56Z</time>
      </trkpt>
      <trkpt lat="42.93497" lon="0.78549">
        <ele>1169.1</ele>
        <time>2025-01-21T14:04:56Z</time>
      </trkpt>
      <trkpt lat="42.93493" lon="0.7852">
        <ele>1172.1</ele>
        <time>2025-01-21T14:04:56Z</time>
      </trkpt>
      <trkpt lat="42.93503" lon="0.78359">
        <ele>1197.8</ele>
        <time>2025-01-21T14:04:56Z</time>
      </trkpt>
      <trkpt lat="42.93516" lon="0.7819">
        <ele>1224.8</ele>
        <time>2025-01-21T14:04:56Z</time>
      </trkpt>
      <trkpt lat="42.93544" lon="0.77829">
        <ele>1266.8</ele>
        <time>2025-01-21T14:04:56Z</time>
      </trkpt>
      <trkpt lat="42.93555" lon="0.77772">
        <ele>1280.2</ele>
        <time>2025-01-21T14:04:56Z</time>
      </trkpt>
      <trkpt lat="42.93564" lon="0.77675">
        <ele>1296.4</ele>
        <time>2025-01-21T14:04:56Z</time>
      </trkpt>
      <trkpt lat="42.93545" lon="0.77473">
        <ele>1332.3</ele>
        <time>2025-01-21T14:04:56Z</time>
      </trkpt>
      <trkpt lat="42.93583" lon="0.77105">
        <ele>1379.2</ele>
        <time>2025-01-21T14:04:56Z</time>
      </trkpt>
      <trkpt lat="42.93622" lon="0.76939">
        <ele>1393.5</ele>
        <time>2025-01-21T14:04:56Z</time>
      </trkpt>
      <trkpt lat="42.93606" lon="0.76894">
        <ele>1396.2</ele>
        <time>2025-01-21T14:04:56Z</time>
      </trkpt>
      <trkpt lat="42.93579" lon="0.76859">
        <ele>1400.6</ele>
        <time>2025-01-21T14:04:56Z</time>
      </trkpt>
      <trkpt lat="42.93538" lon="0.76835">
        <ele>1398.5</ele>
        <time>2025-01-21T14:04:56Z</time>
      </trkpt>
      <trkpt lat="42.93487" lon="0.76828">
        <ele>1404.9</ele>
        <time>2025-01-21T14:04:56Z</time>
      </trkpt>
      <trkpt lat="42.93453" lon="0.76801">
        <ele>1410</ele>
        <time>2025-01-21T14:04:56Z</time>
      </trkpt>
      <trkpt lat="42.93439" lon="0.76769">
        <ele>1411.6</ele>
        <time>2025-01-21T14:04:56Z</time>
      </trkpt>
      <trkpt lat="42.93427" lon="0.76706">
        <ele>1412.6</ele>
        <time>2025-01-21T14:04:56Z</time>
      </trkpt>
      <trkpt lat="42.93426" lon="0.7664">
        <ele>1411.1</ele>
        <time>2025-01-21T14:04:56Z</time>
      </trkpt>
      <trkpt lat="42.93439" lon="0.76595">
        <ele>1411.2</ele>
        <time>2025-01-21T14:04:56Z</time>
      </trkpt>
      <trkpt lat="42.9349" lon="0.76535">
        <ele>1418.3</ele>
        <time>2025-01-21T14:04:56Z</time>
      </trkpt>
      <trkpt lat="42.93559" lon="0.76422">
        <ele>1413.9</ele>
        <time>2025-01-21T14:04:56Z</time>
      </trkpt>
      <trkpt lat="42.93568" lon="0.76386">
        <ele>1416</ele>
        <time>2025-01-21T14:04:56Z</time>
      </trkpt>
      <trkpt lat="42.93559" lon="0.76337">
        <ele>1423</ele>
        <time>2025-01-21T14:04:56Z</time>
      </trkpt>
      <trkpt lat="42.93566" lon="0.76293">
        <ele>1431.6</ele>
        <time>2025-01-21T14:04:56Z</time>
      </trkpt>
      <trkpt lat="42.93564" lon="0.76276">
        <ele>1432.6</ele>
        <time>2025-01-21T14:04:56Z</time>
      </trkpt>
      <trkpt lat="42.93551" lon="0.76255">
        <ele>1433.4</ele>
        <time>2025-01-21T14:04:56Z</time>
      </trkpt>
      <trkpt lat="42.935" lon="0.76206">
        <ele>1442.5</ele>
        <time>2025-01-21T14:04:56Z</time>
      </trkpt>
      <trkpt lat="42.93455" lon="0.76125">
        <ele>1459.7</ele>
        <time>2025-01-21T14:04:56Z</time>
      </trkpt>
      <trkpt lat="42.93458" lon="0.76114">
        <ele>1462.6</ele>
        <time>2025-01-21T14:04:56Z</time>
      </trkpt>
      <trkpt lat="42.93467" lon="0.76114">
        <ele>1463.4</ele>
        <time>2025-01-21T14:04:56Z</time>
      </trkpt>
      <trkpt lat="42.93468" lon="0.76114">
        <ele>1463.5</ele>
        <time>2025-01-21T14:04:56Z</time>
      </trkpt>
      <trkpt lat="42.9349" lon="0.7613">
        <ele>1462.2</ele>
        <time>2025-01-21T14:04:56Z</time>
      </trkpt>
      <trkpt lat="42.93501" lon="0.76133">
        <ele>1463.3</ele>
        <time>2025-01-21T14:04:56Z</time>
      </trkpt>
      <trkpt lat="42.9351" lon="0.76132">
        <ele>1464.2</ele>
        <time>2025-01-21T14:04:56Z</time>
      </trkpt>
      <trkpt lat="42.93521" lon="0.76125">
        <ele>1467.3</ele>
        <time>2025-01-21T14:04:56Z</time>
      </trkpt>
      <trkpt lat="42.93574" lon="0.76068">
        <ele>1486.1</ele>
        <time>2025-01-21T14:04:56Z</time>
      </trkpt>
      <trkpt lat="42.9361" lon="0.76011">
        <ele>1502.8</ele>
        <time>2025-01-21T14:04:56Z</time>
      </trkpt>
      <trkpt lat="42.9362" lon="0.76015">
        <ele>1503.5</ele>
        <time>2025-01-21T14:04:56Z</time>
      </trkpt>
      <trkpt lat="42.9363" lon="0.76012">
        <ele>1506.1</ele>
        <time>2025-01-21T14:04:56Z</time>
      </trkpt>
      <trkpt lat="42.93642" lon="0.76013">
        <ele>1509</ele>
        <time>2025-01-21T14:04:56Z</time>
      </trkpt>
      <trkpt lat="42.93653" lon="0.76011">
        <ele>1514.2</ele>
        <time>2025-01-21T14:04:56Z</time>
      </trkpt>
      <trkpt lat="42.93661" lon="0.75994">
        <ele>1520.7</ele>
        <time>2025-01-21T14:04:56Z</time>
      </trkpt>
      <trkpt lat="42.93664" lon="0.75964">
        <ele>1526.6</ele>
        <time>2025-01-21T14:04:56Z</time>
      </trkpt>
      <trkpt lat="42.93671" lon="0.75948">
        <ele>1533.8</ele>
        <time>2025-01-21T14:04:56Z</time>
      </trkpt>
      <trkpt lat="42.93679" lon="0.75919">
        <ele>1546.1</ele>
        <time>2025-01-21T14:04:56Z</time>
      </trkpt>
      <trkpt lat="42.93685" lon="0.75908">
        <ele>1552.2</ele>
        <time>2025-01-21T14:04:56Z</time>
      </trkpt>
      <trkpt lat="42.93693" lon="0.75906">
        <ele>1556.4</ele>
        <time>2025-01-21T14:04:56Z</time>
      </trkpt>
      <trkpt lat="42.937" lon="0.75899">
        <ele>1561.8</ele>
        <time>2025-01-21T14:04:56Z</time>
      </trkpt>
      <trkpt lat="42.93702" lon="0.75883">
        <ele>1566.8</ele>
        <time>2025-01-21T14:04:56Z</time>
      </trkpt>
      <trkpt lat="42.93699" lon="0.75871">
        <ele>1568.6</ele>
        <time>2025-01-21T14:04:56Z</time>
      </trkpt>
      <trkpt lat="42.93687" lon="0.75849">
        <ele>1572.8</ele>
        <time>2025-01-21T14:04:56Z</time>
      </trkpt>
      <trkpt lat="42.93679" lon="0.75827">
        <ele>1579.6</ele>
        <time>2025-01-21T14:04:56Z</time>
      </trkpt>
      <trkpt lat="42.93679" lon="0.75816">
        <ele>1583.1</ele>
        <time>2025-01-21T14:04:56Z</time>
      </trkpt>
      <trkpt lat="42.93685" lon="0.75786">
        <ele>1592.5</ele>
        <time>2025-01-21T14:04:56Z</time>
      </trkpt>
      <trkpt lat="42.9369" lon="0.75774">
        <ele>1596.3</ele>
        <time>2025-01-21T14:04:56Z</time>
      </trkpt>
      <trkpt lat="42.937" lon="0.75761">
        <ele>1600.9</ele>
        <time>2025-01-21T14:04:56Z</time>
      </trkpt>
      <trkpt lat="42.93707" lon="0.75736">
        <ele>1608.9</ele>
        <time>2025-01-21T14:04:56Z</time>
      </trkpt>
      <trkpt lat="42.93705" lon="0.75721">
        <ele>1614.1</ele>
        <time>2025-01-21T14:04:56Z</time>
      </trkpt>
      <trkpt lat="42.9371" lon="0.757">
        <ele>1621.1</ele>
        <time>2025-01-21T14:04:56Z</time>
      </trkpt>
      <trkpt lat="42.93734" lon="0.75664">
        <ele>1632.6</ele>
        <time>2025-01-21T14:04:56Z</time>
      </trkpt>
      <trkpt lat="42.93745" lon="0.75655">
        <ele>1638.7</ele>
        <time>2025-01-21T14:04:56Z</time>
      </trkpt>
      <trkpt lat="42.93757" lon="0.75628">
        <ele>1646.9</ele>
        <time>2025-01-21T14:04:56Z</time>
      </trkpt>
      <trkpt lat="42.93757" lon="0.75618">
        <ele>1648.2</ele>
        <time>2025-01-21T14:04:56Z</time>
      </trkpt>
      <trkpt lat="42.93763" lon="0.75576">
        <ele>1664</ele>
        <time>2025-01-21T14:04:56Z</time>
      </trkpt>
      <trkpt lat="42.93762" lon="0.75564">
        <ele>1667.6</ele>
        <time>2025-01-21T14:04:56Z</time>
      </trkpt>
      <trkpt lat="42.93765" lon="0.75528">
        <ele>1683</ele>
        <time>2025-01-21T14:04:56Z</time>
      </trkpt>
      <trkpt lat="42.93768" lon="0.75518">
        <ele>1688.3</ele>
        <time>2025-01-21T14:04:56Z</time>
      </trkpt>
      <trkpt lat="42.93778" lon="0.75514">
        <ele>1691.1</ele>
        <time>2025-01-21T14:04:56Z</time>
      </trkpt>
      <trkpt lat="42.93774" lon="0.75501">
        <ele>1696.4</ele>
        <time>2025-01-21T14:04:56Z</time>
      </trkpt>
      <trkpt lat="42.93779" lon="0.75488">
        <ele>1701.8</ele>
        <time>2025-01-21T14:04:56Z</time>
      </trkpt>
      <trkpt lat="42.93779" lon="0.75488">
        <ele>1701.7</ele>
        <time>2025-01-21T14:04:56Z</time>
      </trkpt>
      <trkpt lat="42.93776" lon="0.75477">
        <ele>1705.5</ele>
        <time>2025-01-21T14:04:56Z</time>
      </trkpt>
      <trkpt lat="42.93785" lon="0.75477">
        <ele>1706.7</ele>
        <time>2025-01-21T14:04:56Z</time>
      </trkpt>
      <trkpt lat="42.93795" lon="0.7548">
        <ele>1708.2</ele>
        <time>2025-01-21T14:04:56Z</time>
      </trkpt>
      <trkpt lat="42.9381" lon="0.75491">
        <ele>1712.4</ele>
        <time>2025-01-21T14:04:56Z</time>
      </trkpt>
      <trkpt lat="42.93844" lon="0.75499">
        <ele>1730.6</ele>
        <time>2025-01-21T14:04:56Z</time>
      </trkpt>
      <trkpt lat="42.93851" lon="0.75502">
        <ele>1734.6</ele>
        <time>2025-01-21T14:04:56Z</time>
      </trkpt>
      <trkpt lat="42.93857" lon="0.75511">
        <ele>1738.9</ele>
        <time>2025-01-21T14:04:56Z</time>
      </trkpt>
      <trkpt lat="42.93973" lon="0.75605">
        <ele>1786.4</ele>
        <time>2025-01-21T14:04:56Z</time>
      </trkpt>
      <trkpt lat="42.93987" lon="0.75623">
        <ele>1787.2</ele>
        <time>2025-01-21T14:04:56Z</time>
      </trkpt>
      <trkpt lat="42.9402" lon="0.75645">
        <ele>1794.9</ele>
        <time>2025-01-21T14:04:56Z</time>
      </trkpt>
      <trkpt lat="42.9403" lon="0.75649">
        <ele>1795.8</ele>
        <time>2025-01-21T14:04:56Z</time>
      </trkpt>
      <trkpt lat="42.94063" lon="0.75691">
        <ele>1802.4</ele>
        <time>2025-01-21T14:04:56Z</time>
      </trkpt>
      <trkpt lat="42.94086" lon="0.75706">
        <ele>1809.6</ele>
        <time>2025-01-21T14:04:56Z</time>
      </trkpt>
      <trkpt lat="42.94094" lon="0.75709">
        <ele>1813</ele>
        <time>2025-01-21T14:04:56Z</time>
      </trkpt>
      <trkpt lat="42.94102" lon="0.75719">
        <ele>1818.8</ele>
        <time>2025-01-21T14:04:56Z</time>
      </trkpt>
      <trkpt lat="42.94111" lon="0.75723">
        <ele>1825</ele>
        <time>2025-01-21T14:04:56Z</time>
      </trkpt>
      <trkpt lat="42.94129" lon="0.75745">
        <ele>1835.7</ele>
        <time>2025-01-21T14:04:56Z</time>
      </trkpt>
      <trkpt lat="42.94135" lon="0.75755">
        <ele>1840.5</ele>
        <time>2025-01-21T14:04:56Z</time>
      </trkpt>
      <trkpt lat="42.94154" lon="0.75761">
        <ele>1849.7</ele>
        <time>2025-01-21T14:04:56Z</time>
      </trkpt>
      <trkpt lat="42.94208" lon="0.75794">
        <ele>1875</ele>
        <time>2025-01-21T14:04:56Z</time>
      </trkpt>
      <trkpt lat="42.94229" lon="0.7582">
        <ele>1885</ele>
        <time>2025-01-21T14:04:56Z</time>
      </trkpt>
      <trkpt lat="42.94277" lon="0.75835">
        <ele>1895.6</ele>
        <time>2025-01-21T14:04:56Z</time>
      </trkpt>
      <trkpt lat="42.94275" lon="0.75848">
        <ele>1892.4</ele>
        <time>2025-01-21T14:04:56Z</time>
      </trkpt>
      <trkpt lat="42.9428" lon="0.75866">
        <ele>1888.1</ele>
        <time>2025-01-21T14:04:56Z</time>
      </trkpt>
      <trkpt lat="42.94278" lon="0.75883">
        <ele>1883.7</ele>
        <time>2025-01-21T14:04:56Z</time>
      </trkpt>
      <trkpt lat="42.94286" lon="0.75922">
        <ele>1873.4</ele>
        <time>2025-01-21T14:04:56Z</time>
      </trkpt>
      <trkpt lat="42.94297" lon="0.75932">
        <ele>1871.7</ele>
        <time>2025-01-21T14:04:56Z</time>
      </trkpt>
      <trkpt lat="42.94314" lon="0.75939">
        <ele>1870.3</ele>
        <time>2025-01-21T14:04:56Z</time>
      </trkpt>
      <trkpt lat="42.94325" lon="0.75951">
        <ele>1869.1</ele>
        <time>2025-01-21T14:04:56Z</time>
      </trkpt>
      <trkpt lat="42.94355" lon="0.75959">
        <ele>1862.7</ele>
        <time>2025-01-21T14:04:56Z</time>
      </trkpt>
      <trkpt lat="42.94377" lon="0.76011">
        <ele>1862</ele>
        <time>2025-01-21T14:04:56Z</time>
      </trkpt>
      <trkpt lat="42.94398" lon="0.76049">
        <ele>1860.5</ele>
        <time>2025-01-21T14:04:56Z</time>
      </trkpt>
      <trkpt lat="42.94421" lon="0.76107">
        <ele>1853.3</ele>
        <time>2025-01-21T14:04:56Z</time>
      </trkpt>
      <trkpt lat="42.94425" lon="0.7614">
        <ele>1849.3</ele>
        <time>2025-01-21T14:04:56Z</time>
      </trkpt>
      <trkpt lat="42.94428" lon="0.7615">
        <ele>1848.9</ele>
        <time>2025-01-21T14:04:56Z</time>
      </trkpt>
      <trkpt lat="42.94475" lon="0.76251">
        <ele>1861.2</ele>
        <time>2025-01-21T14:04:56Z</time>
      </trkpt>
      <trkpt lat="42.94502" lon="0.76284">
        <ele>1866.3</ele>
        <time>2025-01-21T14:04:56Z</time>
      </trkpt>
      <trkpt lat="42.94517" lon="0.76326">
        <ele>1868.3</ele>
        <time>2025-01-21T14:04:56Z</time>
      </trkpt>
      <trkpt lat="42.94549" lon="0.76366">
        <ele>1868.5</ele>
        <time>2025-01-21T14:04:56Z</time>
      </trkpt>
      <trkpt lat="42.9455" lon="0.76376">
        <ele>1870.2</ele>
        <time>2025-01-21T14:04:56Z</time>
      </trkpt>
      <trkpt lat="42.94558" lon="0.76396">
        <ele>1873.6</ele>
        <time>2025-01-21T14:04:56Z</time>
      </trkpt>
      <trkpt lat="42.94569" lon="0.76412">
        <ele>1873.4</ele>
        <time>2025-01-21T14:04:56Z</time>
      </trkpt>
      <trkpt lat="42.94576" lon="0.76427">
        <ele>1874.7</ele>
        <time>2025-01-21T14:04:56Z</time>
      </trkpt>
      <trkpt lat="42.94583" lon="0.76431">
        <ele>1876.9</ele>
        <time>2025-01-21T14:04:56Z</time>
      </trkpt>
      <trkpt lat="42.94591" lon="0.76442">
        <ele>1877.6</ele>
        <time>2025-01-21T14:04:56Z</time>
      </trkpt>
      <trkpt lat="42.94612" lon="0.76494">
        <ele>1888.3</ele>
        <time>2025-01-21T14:04:56Z</time>
      </trkpt>
      <trkpt lat="42.94614" lon="0.76506">
        <ele>1889.7</ele>
        <time>2025-01-21T14:04:56Z</time>
      </trkpt>
      <trkpt lat="42.94619" lon="0.76514">
        <ele>1890.1</ele>
        <time>2025-01-21T14:04:56Z</time>
      </trkpt>
      <trkpt lat="42.94628" lon="0.76548">
        <ele>1896.7</ele>
        <time>2025-01-21T14:04:56Z</time>
      </trkpt>
      <trkpt lat="42.94635" lon="0.76554">
        <ele>1899.7</ele>
        <time>2025-01-21T14:04:56Z</time>
      </trkpt>
      <trkpt lat="42.9464" lon="0.7657">
        <ele>1902.6</ele>
        <time>2025-01-21T14:04:56Z</time>
      </trkpt>
      <trkpt lat="42.9464" lon="0.7657">
        <ele>1902.6</ele>
        <time>2025-01-21T14:04:56Z</time>
      </trkpt>
      <trkpt lat="42.94637" lon="0.7656">
        <ele>1901.1</ele>
        <time>2025-01-21T14:04:56Z</time>
      </trkpt>
      <trkpt lat="42.94628" lon="0.76548">
        <ele>1896.7</ele>
        <time>2025-01-21T14:04:56Z</time>
      </trkpt>
      <trkpt lat="42.94625" lon="0.76532">
        <ele>1893.2</ele>
        <time>2025-01-21T14:04:56Z</time>
      </trkpt>
      <trkpt lat="42.94612" lon="0.76494">
        <ele>1888.3</ele>
        <time>2025-01-21T14:04:56Z</time>
      </trkpt>
      <trkpt lat="42.94606" lon="0.76486">
        <ele>1885.1</ele>
        <time>2025-01-21T14:04:56Z</time>
      </trkpt>
      <trkpt lat="42.94591" lon="0.76442">
        <ele>1877.6</ele>
        <time>2025-01-21T14:04:56Z</time>
      </trkpt>
      <trkpt lat="42.94586" lon="0.76435">
        <ele>1877.2</ele>
        <time>2025-01-21T14:04:56Z</time>
      </trkpt>
      <trkpt lat="42.94576" lon="0.76427">
        <ele>1874.7</ele>
        <time>2025-01-21T14:04:56Z</time>
      </trkpt>
      <trkpt lat="42.94564" lon="0.76403">
        <ele>1873</ele>
        <time>2025-01-21T14:04:56Z</time>
      </trkpt>
      <trkpt lat="42.94552" lon="0.76385">
        <ele>1872.2</ele>
        <time>2025-01-21T14:04:56Z</time>
      </trkpt>
      <trkpt lat="42.9455" lon="0.76371">
        <ele>1869.3</ele>
        <time>2025-01-21T14:04:56Z</time>
      </trkpt>
      <trkpt lat="42.94521" lon="0.76332">
        <ele>1869</ele>
        <time>2025-01-21T14:04:56Z</time>
      </trkpt>
      <trkpt lat="42.94505" lon="0.7629">
        <ele>1866.3</ele>
        <time>2025-01-21T14:04:56Z</time>
      </trkpt>
      <trkpt lat="42.94488" lon="0.76266">
        <ele>1863.8</ele>
        <time>2025-01-21T14:04:56Z</time>
      </trkpt>
      <trkpt lat="42.94475" lon="0.76251">
        <ele>1861.2</ele>
        <time>2025-01-21T14:04:56Z</time>
      </trkpt>
      <trkpt lat="42.94451" lon="0.76206">
        <ele>1855</ele>
        <time>2025-01-21T14:04:56Z</time>
      </trkpt>
      <trkpt lat="42.94436" lon="0.76167">
        <ele>1850.2</ele>
        <time>2025-01-21T14:04:56Z</time>
      </trkpt>
      <trkpt lat="42.94429" lon="0.76154">
        <ele>1848.9</ele>
        <time>2025-01-21T14:04:56Z</time>
      </trkpt>
      <trkpt lat="42.94422" lon="0.7612">
        <ele>1851.9</ele>
        <time>2025-01-21T14:04:56Z</time>
      </trkpt>
      <trkpt lat="42.94421" lon="0.76107">
        <ele>1853.3</ele>
        <time>2025-01-21T14:04:56Z</time>
      </trkpt>
      <trkpt lat="42.94412" lon="0.76077">
        <ele>1857.4</ele>
        <time>2025-01-21T14:04:56Z</time>
      </trkpt>
      <trkpt lat="42.94401" lon="0.76057">
        <ele>1860.6</ele>
        <time>2025-01-21T14:04:56Z</time>
      </trkpt>
      <trkpt lat="42.94396" lon="0.76043">
        <ele>1860.3</ele>
        <time>2025-01-21T14:04:56Z</time>
      </trkpt>
      <trkpt lat="42.94362" lon="0.75975">
        <ele>1863.2</ele>
        <time>2025-01-21T14:04:56Z</time>
      </trkpt>
      <trkpt lat="42.94359" lon="0.75965">
        <ele>1862.4</ele>
        <time>2025-01-21T14:04:56Z</time>
      </trkpt>
      <trkpt lat="42.94352" lon="0.75959">
        <ele>1863.6</ele>
        <time>2025-01-21T14:04:56Z</time>
      </trkpt>
      <trkpt lat="42.94325" lon="0.75951">
        <ele>1869.1</ele>
        <time>2025-01-21T14:04:56Z</time>
      </trkpt>
      <trkpt lat="42.94314" lon="0.75939">
        <ele>1870.3</ele>
        <time>2025-01-21T14:04:56Z</time>
      </trkpt>
      <trkpt lat="42.94297" lon="0.75932">
        <ele>1871.7</ele>
        <time>2025-01-21T14:04:56Z</time>
      </trkpt>
      <trkpt lat="42.94286" lon="0.75922">
        <ele>1873.4</ele>
        <time>2025-01-21T14:04:56Z</time>
      </trkpt>
      <trkpt lat="42.94278" lon="0.75883">
        <ele>1883.7</ele>
        <time>2025-01-21T14:04:56Z</time>
      </trkpt>
      <trkpt lat="42.9428" lon="0.75866">
        <ele>1888.1</ele>
        <time>2025-01-21T14:04:56Z</time>
      </trkpt>
      <trkpt lat="42.94277" lon="0.75835">
        <ele>1895.6</ele>
        <time>2025-01-21T14:04:56Z</time>
      </trkpt>
      <trkpt lat="42.94229" lon="0.7582">
        <ele>1885</ele>
        <time>2025-01-21T14:04:56Z</time>
      </trkpt>
      <trkpt lat="42.94208" lon="0.75794">
        <ele>1875</ele>
        <time>2025-01-21T14:04:56Z</time>
      </trkpt>
      <trkpt lat="42.94178" lon="0.75779">
        <ele>1863.5</ele>
        <time>2025-01-21T14:04:56Z</time>
      </trkpt>
      <trkpt lat="42.94154" lon="0.75761">
        <ele>1849.7</ele>
        <time>2025-01-21T14:04:56Z</time>
      </trkpt>
      <trkpt lat="42.94135" lon="0.75755">
        <ele>1840.5</ele>
        <time>2025-01-21T14:04:56Z</time>
      </trkpt>
      <trkpt lat="42.94124" lon="0.75737">
        <ele>1830.9</ele>
        <time>2025-01-21T14:04:56Z</time>
      </trkpt>
      <trkpt lat="42.94107" lon="0.7572">
        <ele>1821.6</ele>
        <time>2025-01-21T14:04:56Z</time>
      </trkpt>
      <trkpt lat="42.94098" lon="0.75716">
        <ele>1815.9</ele>
        <time>2025-01-21T14:04:56Z</time>
      </trkpt>
      <trkpt lat="42.94093" lon="0.75707">
        <ele>1812.5</ele>
        <time>2025-01-21T14:04:56Z</time>
      </trkpt>
      <trkpt lat="42.94067" lon="0.75696">
        <ele>1804.2</ele>
        <time>2025-01-21T14:04:56Z</time>
      </trkpt>
      <trkpt lat="42.9403" lon="0.75649">
        <ele>1795.8</ele>
        <time>2025-01-21T14:04:56Z</time>
      </trkpt>
      <trkpt lat="42.93999" lon="0.75633">
        <ele>1792.2</ele>
        <time>2025-01-21T14:04:56Z</time>
      </trkpt>
      <trkpt lat="42.93982" lon="0.75618">
        <ele>1786.6</ele>
        <time>2025-01-21T14:04:56Z</time>
      </trkpt>
      <trkpt lat="42.93976" lon="0.75607">
        <ele>1786.5</ele>
        <time>2025-01-21T14:04:56Z</time>
      </trkpt>
      <trkpt lat="42.93857" lon="0.75511">
        <ele>1738.9</ele>
        <time>2025-01-21T14:04:56Z</time>
      </trkpt>
      <trkpt lat="42.93852" lon="0.75503">
        <ele>1735</ele>
        <time>2025-01-21T14:04:56Z</time>
      </trkpt>
      <trkpt lat="42.93844" lon="0.75499">
        <ele>1730.6</ele>
        <time>2025-01-21T14:04:56Z</time>
      </trkpt>
      <trkpt lat="42.9381" lon="0.75491">
        <ele>1712.4</ele>
        <time>2025-01-21T14:04:56Z</time>
      </trkpt>
      <trkpt lat="42.93795" lon="0.7548">
        <ele>1708.2</ele>
        <time>2025-01-21T14:04:56Z</time>
      </trkpt>
      <trkpt lat="42.93787" lon="0.75477">
        <ele>1707.1</ele>
        <time>2025-01-21T14:04:56Z</time>
      </trkpt>
      <trkpt lat="42.93783" lon="0.75471">
        <ele>1707.4</ele>
        <time>2025-01-21T14:04:56Z</time>
      </trkpt>
      <trkpt lat="42.93782" lon="0.7547">
        <ele>1707.2</ele>
        <time>2025-01-21T14:04:56Z</time>
      </trkpt>
      <trkpt lat="42.93776" lon="0.75494">
        <ele>1699.1</ele>
        <time>2025-01-21T14:04:56Z</time>
      </trkpt>
      <trkpt lat="42.93778" lon="0.7551">
        <ele>1692.9</ele>
        <time>2025-01-21T14:04:56Z</time>
      </trkpt>
      <trkpt lat="42.93768" lon="0.75518">
        <ele>1688.3</ele>
        <time>2025-01-21T14:04:56Z</time>
      </trkpt>
      <trkpt lat="42.93762" lon="0.75543">
        <ele>1676</ele>
        <time>2025-01-21T14:04:56Z</time>
      </trkpt>
      <trkpt lat="42.93763" lon="0.75576">
        <ele>1664</ele>
        <time>2025-01-21T14:04:56Z</time>
      </trkpt>
      <trkpt lat="42.93757" lon="0.75628">
        <ele>1646.9</ele>
        <time>2025-01-21T14:04:56Z</time>
      </trkpt>
      <trkpt lat="42.93745" lon="0.75655">
        <ele>1638.7</ele>
        <time>2025-01-21T14:04:56Z</time>
      </trkpt>
      <trkpt lat="42.93734" lon="0.75664">
        <ele>1632.6</ele>
        <time>2025-01-21T14:04:56Z</time>
      </trkpt>
      <trkpt lat="42.93711" lon="0.75698">
        <ele>1621.9</ele>
        <time>2025-01-21T14:04:56Z</time>
      </trkpt>
      <trkpt lat="42.93705" lon="0.75721">
        <ele>1614.1</ele>
        <time>2025-01-21T14:04:56Z</time>
      </trkpt>
      <trkpt lat="42.93707" lon="0.75731">
        <ele>1610.6</ele>
        <time>2025-01-21T14:04:56Z</time>
      </trkpt>
      <trkpt lat="42.93702" lon="0.75758">
        <ele>1602</ele>
        <time>2025-01-21T14:04:56Z</time>
      </trkpt>
      <trkpt lat="42.93688" lon="0.75778">
        <ele>1595</ele>
        <time>2025-01-21T14:04:56Z</time>
      </trkpt>
      <trkpt lat="42.9368" lon="0.75809">
        <ele>1585.3</ele>
        <time>2025-01-21T14:04:56Z</time>
      </trkpt>
      <trkpt lat="42.93679" lon="0.75822">
        <ele>1581.2</ele>
        <time>2025-01-21T14:04:56Z</time>
      </trkpt>
      <trkpt lat="42.93681" lon="0.75832">
        <ele>1577.9</ele>
        <time>2025-01-21T14:04:56Z</time>
      </trkpt>
      <trkpt lat="42.9369" lon="0.75854">
        <ele>1571.7</ele>
        <time>2025-01-21T14:04:56Z</time>
      </trkpt>
      <trkpt lat="42.93701" lon="0.75876">
        <ele>1568.3</ele>
        <time>2025-01-21T14:04:56Z</time>
      </trkpt>
      <trkpt lat="42.93702" lon="0.75891">
        <ele>1564.6</ele>
        <time>2025-01-21T14:04:56Z</time>
      </trkpt>
      <trkpt lat="42.93697" lon="0.75902">
        <ele>1559.2</ele>
        <time>2025-01-21T14:04:56Z</time>
      </trkpt>
      <trkpt lat="42.93689" lon="0.75905">
        <ele>1554.6</ele>
        <time>2025-01-21T14:04:56Z</time>
      </trkpt>
      <trkpt lat="42.93682" lon="0.75912">
        <ele>1549.6</ele>
        <time>2025-01-21T14:04:56Z</time>
      </trkpt>
      <trkpt lat="42.93664" lon="0.75964">
        <ele>1526.6</ele>
        <time>2025-01-21T14:04:56Z</time>
      </trkpt>
      <trkpt lat="42.93661" lon="0.75994">
        <ele>1520.7</ele>
        <time>2025-01-21T14:04:56Z</time>
      </trkpt>
      <trkpt lat="42.93657" lon="0.76008">
        <ele>1516.6</ele>
        <time>2025-01-21T14:04:56Z</time>
      </trkpt>
      <trkpt lat="42.93642" lon="0.76013">
        <ele>1509</ele>
        <time>2025-01-21T14:04:56Z</time>
      </trkpt>
      <trkpt lat="42.9363" lon="0.76012">
        <ele>1506.1</ele>
        <time>2025-01-21T14:04:56Z</time>
      </trkpt>
      <trkpt lat="42.9362" lon="0.76015">
        <ele>1503.5</ele>
        <time>2025-01-21T14:04:56Z</time>
      </trkpt>
      <trkpt lat="42.9361" lon="0.76011">
        <ele>1502.8</ele>
        <time>2025-01-21T14:04:56Z</time>
      </trkpt>
      <trkpt lat="42.936" lon="0.76023">
        <ele>1500.1</ele>
        <time>2025-01-21T14:04:56Z</time>
      </trkpt>
      <trkpt lat="42.93577" lon="0.76065">
        <ele>1486.8</ele>
        <time>2025-01-21T14:04:56Z</time>
      </trkpt>
      <trkpt lat="42.93548" lon="0.7609">
        <ele>1480.2</ele>
        <time>2025-01-21T14:04:56Z</time>
      </trkpt>
      <trkpt lat="42.93541" lon="0.76103">
        <ele>1475.8</ele>
        <time>2025-01-21T14:04:56Z</time>
      </trkpt>
      <trkpt lat="42.93516" lon="0.76129">
        <ele>1465.6</ele>
        <time>2025-01-21T14:04:56Z</time>
      </trkpt>
      <trkpt lat="42.93506" lon="0.76133">
        <ele>1463.6</ele>
        <time>2025-01-21T14:04:56Z</time>
      </trkpt>
      <trkpt lat="42.93497" lon="0.76132">
        <ele>1462.9</ele>
        <time>2025-01-21T14:04:56Z</time>
      </trkpt>
      <trkpt lat="42.93479" lon="0.76124">
        <ele>1462</ele>
        <time>2025-01-21T14:04:56Z</time>
      </trkpt>
      <trkpt lat="42.93471" lon="0.76117">
        <ele>1463</ele>
        <time>2025-01-21T14:04:56Z</time>
      </trkpt>
      <trkpt lat="42.93458" lon="0.76114">
        <ele>1462.6</ele>
        <time>2025-01-21T14:04:56Z</time>
      </trkpt>
      <trkpt lat="42.93451" lon="0.76118">
        <ele>1461.2</ele>
        <time>2025-01-21T14:04:56Z</time>
      </trkpt>
      <trkpt lat="42.9351" lon="0.76219">
        <ele>1439</ele>
        <time>2025-01-21T14:04:56Z</time>
      </trkpt>
      <trkpt lat="42.93551" lon="0.76255">
        <ele>1433.4</ele>
        <time>2025-01-21T14:04:56Z</time>
      </trkpt>
      <trkpt lat="42.93562" lon="0.76269">
        <ele>1432.8</ele>
        <time>2025-01-21T14:04:56Z</time>
      </trkpt>
      <trkpt lat="42.93566" lon="0.76293">
        <ele>1431.6</ele>
        <time>2025-01-21T14:04:56Z</time>
      </trkpt>
      <trkpt lat="42.93559" lon="0.76337">
        <ele>1423</ele>
        <time>2025-01-21T14:04:56Z</time>
      </trkpt>
      <trkpt lat="42.93568" lon="0.76386">
        <ele>1416</ele>
        <time>2025-01-21T14:04:56Z</time>
      </trkpt>
      <trkpt lat="42.93559" lon="0.76422">
        <ele>1413.9</ele>
        <time>2025-01-21T14:04:56Z</time>
      </trkpt>
      <trkpt lat="42.93439" lon="0.76595">
        <ele>1411.2</ele>
        <time>2025-01-21T14:04:56Z</time>
      </trkpt>
      <trkpt lat="42.93426" lon="0.7664">
        <ele>1411.1</ele>
        <time>2025-01-21T14:04:56Z</time>
      </trkpt>
      <trkpt lat="42.93427" lon="0.76706">
        <ele>1412.6</ele>
        <time>2025-01-21T14:04:56Z</time>
      </trkpt>
      <trkpt lat="42.93439" lon="0.76769">
        <ele>1411.6</ele>
        <time>2025-01-21T14:04:56Z</time>
      </trkpt>
      <trkpt lat="42.93453" lon="0.76801">
        <ele>1410</ele>
        <time>2025-01-21T14:04:56Z</time>
      </trkpt>
      <trkpt lat="42.93487" lon="0.76828">
        <ele>1404.9</ele>
        <time>2025-01-21T14:04:56Z</time>
      </trkpt>
      <trkpt lat="42.93538" lon="0.76835">
        <ele>1398.5</ele>
        <time>2025-01-21T14:04:56Z</time>
      </trkpt>
      <trkpt lat="42.93579" lon="0.76859">
        <ele>1400.6</ele>
        <time>2025-01-21T14:04:56Z</time>
      </trkpt>
      <trkpt lat="42.93606" lon="0.76894">
        <ele>1396.2</ele>
        <time>2025-01-21T14:04:56Z</time>
      </trkpt>
      <trkpt lat="42.93622" lon="0.76939">
        <ele>1393.5</ele>
        <time>2025-01-21T14:04:56Z</time>
      </trkpt>
      <trkpt lat="42.93583" lon="0.77105">
        <ele>1379.2</ele>
        <time>2025-01-21T14:04:56Z</time>
      </trkpt>
      <trkpt lat="42.93545" lon="0.77473">
        <ele>1332.3</ele>
        <time>2025-01-21T14:04:56Z</time>
      </trkpt>
      <trkpt lat="42.93562" lon="0.77724">
        <ele>1288.8</ele>
        <time>2025-01-21T14:04:56Z</time>
      </trkpt>
      <trkpt lat="42.93517" lon="0.78118">
        <ele>1229.4</ele>
        <time>2025-01-21T14:04:56Z</time>
      </trkpt>
      <trkpt lat="42.93493" lon="0.7852">
        <ele>1172.1</ele>
        <time>2025-01-21T14:04:56Z</time>
      </trkpt>
      <trkpt lat="42.93497" lon="0.78549">
        <ele>1169.1</ele>
        <time>2025-01-21T14:04:56Z</time>
      </trkpt>
      <trkpt lat="42.93583" lon="0.78806">
        <ele>1145.6</ele>
        <time>2025-01-21T14:04:56Z</time>
      </trkpt>
      <trkpt lat="42.93597" lon="0.78822">
        <ele>1142.2</ele>
        <time>2025-01-21T14:04:56Z</time>
      </trkpt>
      <trkpt lat="42.93625" lon="0.78838">
        <ele>1137.1</ele>
        <time>2025-01-21T14:04:56Z</time>
      </trkpt>
      <trkpt lat="42.937" lon="0.78956">
        <ele>1092.4</ele>
        <time>2025-01-21T14:04:56Z</time>
      </trkpt>
      <trkpt lat="42.93705" lon="0.78969">
        <ele>1089.8</ele>
        <time>2025-01-21T14:04:56Z</time>
      </trkpt>
      <trkpt lat="42.93708" lon="0.7905">
        <ele>1086.1</ele>
        <time>2025-01-21T14:04:56Z</time>
      </trkpt>
      <trkpt lat="42.937" lon="0.79151">
        <ele>1078.5</ele>
        <time>2025-01-21T14:04:56Z</time>
      </trkpt>
      <trkpt lat="42.93688" lon="0.7921">
        <ele>1070.3</ele>
        <time>2025-01-21T14:04:56Z</time>
      </trkpt>
      <trkpt lat="42.93688" lon="0.79256">
        <ele>1069.7</ele>
        <time>2025-01-21T14:04:56Z</time>
      </trkpt>
      <trkpt lat="42.93688" lon="0.79257">
        <ele>1069.8</ele>
        <time>2025-01-21T14:04:56Z</time>
      </trkpt>
      <trkpt lat="42.93735" lon="0.7926">
        <ele>1069.9</ele>
        <time>2025-01-21T14:04:56Z</time>
      </trkpt>
      <trkpt lat="42.93746" lon="0.79233">
        <ele>1067.5</ele>
        <time>2025-01-21T14:04:56Z</time>
      </trkpt>
      <trkpt lat="42.93754" lon="0.79225">
        <ele>1065.3</ele>
        <time>2025-01-21T14:04:56Z</time>
      </trkpt>
      <trkpt lat="42.93764" lon="0.7923">
        <ele>1061.1</ele>
        <time>2025-01-21T14:04:56Z</time>
      </trkpt>
      <trkpt lat="42.93768" lon="0.79238">
        <ele>1059.5</ele>
        <time>2025-01-21T14:04:56Z</time>
      </trkpt>
      <trkpt lat="42.93777" lon="0.79248">
        <ele>1056.2</ele>
        <time>2025-01-21T14:04:56Z</time>
      </trkpt>
      <trkpt lat="42.93809" lon="0.79178">
        <ele>1037</ele>
        <time>2025-01-21T14:04:56Z</time>
      </trkpt>
      <trkpt lat="42.93816" lon="0.7917">
        <ele>1033.1</ele>
        <time>2025-01-21T14:04:56Z</time>
      </trkpt>
      <trkpt lat="42.9382" lon="0.79137">
        <ele>1032</ele>
        <time>2025-01-21T14:04:56Z</time>
      </trkpt>
      <trkpt lat="42.93825" lon="0.79149">
        <ele>1028.4</ele>
        <time>2025-01-21T14:04:56Z</time>
      </trkpt>
      <trkpt lat="42.93829" lon="0.79189">
        <ele>1026.3</ele>
        <time>2025-01-21T14:04:56Z</time>
      </trkpt>
      <trkpt lat="42.93835" lon="0.79199">
        <ele>1023.2</ele>
        <time>2025-01-21T14:04:56Z</time>
      </trkpt>
      <trkpt lat="42.93847" lon="0.79186">
        <ele>1017</ele>
        <time>2025-01-21T14:04:56Z</time>
      </trkpt>
      <trkpt lat="42.93853" lon="0.79155">
        <ele>1013.3</ele>
        <time>2025-01-21T14:04:56Z</time>
      </trkpt>
      <trkpt lat="42.93883" lon="0.79077">
        <ele>1001.4</ele>
        <time>2025-01-21T14:04:56Z</time>
      </trkpt>
      <trkpt lat="42.93889" lon="0.79093">
        <ele>997.7</ele>
        <time>2025-01-21T14:04:56Z</time>
      </trkpt>
      <trkpt lat="42.93903" lon="0.7911">
        <ele>990.5</ele>
        <time>2025-01-21T14:04:56Z</time>
      </trkpt>
      <trkpt lat="42.93916" lon="0.79134">
        <ele>983.8</ele>
        <time>2025-01-21T14:04:56Z</time>
      </trkpt>
      <trkpt lat="42.93957" lon="0.79085">
        <ele>968.8</ele>
        <time>2025-01-21T14:04:56Z</time>
      </trkpt>
      <trkpt lat="42.94051" lon="0.79024">
        <ele>949.1</ele>
        <time>2025-01-21T14:04:56Z</time>
      </trkpt>
      <trkpt lat="42.94059" lon="0.79022">
        <ele>948</ele>
        <time>2025-01-21T14:04:56Z</time>
      </trkpt>
      <trkpt lat="42.94103" lon="0.79032">
        <ele>941</ele>
        <time>2025-01-21T14:04:56Z</time>
      </trkpt>
      <trkpt lat="42.94145" lon="0.79033">
        <ele>934.9</ele>
        <time>2025-01-21T14:04:56Z</time>
      </trkpt>
      <trkpt lat="42.94283" lon="0.79086">
        <ele>918.5</ele>
        <time>2025-01-21T14:04:56Z</time>
      </trkpt>
      <trkpt lat="42.94294" lon="0.79098">
        <ele>916.8</ele>
        <time>2025-01-21T14:04:56Z</time>
      </trkpt>
      <trkpt lat="42.94313" lon="0.79107">
        <ele>915</ele>
        <time>2025-01-21T14:04:56Z</time>
      </trkpt>
      <trkpt lat="42.94354" lon="0.79111">
        <ele>912.6</ele>
        <time>2025-01-21T14:04:56Z</time>
      </trkpt>
      <trkpt lat="42.94449" lon="0.79093">
        <ele>903.9</ele>
        <time>2025-01-21T14:04:56Z</time>
      </trkpt>
      <trkpt lat="42.94491" lon="0.79076">
        <ele>901.1</ele>
        <time>2025-01-21T14:04:56Z</time>
      </trkpt>
      <trkpt lat="42.94686" lon="0.79105">
        <ele>872.6</ele>
        <time>2025-01-21T14:04:56Z</time>
      </trkpt>
      <trkpt lat="42.94738" lon="0.79133">
        <ele>862.3</ele>
        <time>2025-01-21T14:04:56Z</time>
      </trkpt>
      <trkpt lat="42.9477" lon="0.79145">
        <ele>856.7</ele>
        <time>2025-01-21T14:04:56Z</time>
      </trkpt>
      <trkpt lat="42.94794" lon="0.7916">
        <ele>852</ele>
        <time>2025-01-21T14:04:56Z</time>
      </trkpt>
      <trkpt lat="42.94812" lon="0.7918">
        <ele>848.5</ele>
        <time>2025-01-21T14:04:56Z</time>
      </trkpt>
      <trkpt lat="42.94813" lon="0.7922">
        <ele>848.2</ele>
        <time>2025-01-21T14:04:56Z</time>
      </trkpt>
      <trkpt lat="42.94827" lon="0.79226">
        <ele>847</ele>
        <time>2025-01-21T14:04:56Z</time>
      </trkpt>
      <trkpt lat="42.94863" lon="0.79319">
        <ele>856.1</ele>
        <time>2025-01-21T14:04:56Z</time>
      </trkpt>
      <trkpt lat="42.949" lon="0.79355">
        <ele>855.7</ele>
        <time>2025-01-21T14:04:56Z</time>
      </trkpt>
      <trkpt lat="42.94943" lon="0.79413">
        <ele>858.6</ele>
        <time>2025-01-21T14:04:56Z</time>
      </trkpt>
      <trkpt lat="42.95123" lon="0.79525">
        <ele>829</ele>
        <time>2025-01-21T14:04:56Z</time>
      </trkpt>
      <trkpt lat="42.95144" lon="0.79546">
        <ele>826.4</ele>
        <time>2025-01-21T14:04:56Z</time>
      </trkpt>
      <trkpt lat="42.95158" lon="0.79551">
        <ele>822.8</ele>
        <time>2025-01-21T14:04:56Z</time>
      </trkpt>
      <trkpt lat="42.9531" lon="0.7952">
        <ele>804.5</ele>
        <time>2025-01-21T14:04:56Z</time>
      </trkpt>
      <trkpt lat="42.95337" lon="0.79522">
        <ele>804.2</ele>
        <time>2025-01-21T14:04:56Z</time>
      </trkpt>
      <trkpt lat="42.95433" lon="0.79473">
        <ele>759.4</ele>
        <time>2025-01-21T14:04:56Z</time>
      </trkpt>
      <trkpt lat="42.95454" lon="0.79473">
        <ele>751.8</ele>
        <time>2025-01-21T14:04:56Z</time>
      </trkpt>
      <trkpt lat="42.95473" lon="0.79486">
        <ele>747.3</ele>
        <time>2025-01-21T14:04:56Z</time>
      </trkpt>
      <trkpt lat="42.95517" lon="0.7956">
        <ele>737.1</ele>
        <time>2025-01-21T14:04:56Z</time>
      </trkpt>
      <trkpt lat="42.95592" lon="0.79657">
        <ele>717.3</ele>
        <time>2025-01-21T14:04:56Z</time>
      </trkpt>
      <trkpt lat="42.95702" lon="0.79724">
        <ele>691.8</ele>
        <time>2025-01-21T14:04:56Z</time>
      </trkpt>
      <trkpt lat="42.95702" lon="0.79724">
        <ele>691.8</ele>
        <time>2025-01-21T14:04:56Z</time>
      </trkpt>
      <trkpt lat="42.95702" lon="0.79724">
        <ele>691.8</ele>
        <time>2025-01-21T14:04:56Z</time>
      </trkpt>
      <trkpt lat="42.95702" lon="0.79724">
        <ele>691.8</ele>
        <time>2025-01-21T14:04:56Z</time>
      </trkpt>
      <trkpt lat="42.95702" lon="0.79724">
        <ele>691.8</ele>
        <time>2025-01-21T14:04:56Z</time>
      </trkpt>
      <trkpt lat="42.95743" lon="0.79797">
        <ele>677</ele>
        <time>2025-01-21T14:04:56Z</time>
      </trkpt>
      <trkpt lat="42.95806" lon="0.79844">
        <ele>647.2</ele>
        <time>2025-01-21T14:04:56Z</time>
      </trkpt>
      <trkpt lat="42.95755" lon="0.79771">
        <ele>665.7</ele>
        <time>2025-01-21T14:04:56Z</time>
      </trkpt>
      <trkpt lat="42.95758" lon="0.79698">
        <ele>651.5</ele>
        <time>2025-01-21T14:04:56Z</time>
      </trkpt>
      <trkpt lat="42.95718" lon="0.79625">
        <ele>639.6</ele>
        <time>2025-01-21T14:04:56Z</time>
      </trkpt>
      <trkpt lat="42.95604" lon="0.79462">
        <ele>636.6</ele>
        <time>2025-01-21T14:04:56Z</time>
      </trkpt>
      <trkpt lat="42.95648" lon="0.79445">
        <ele>626.6</ele>
        <time>2025-01-21T14:04:56Z</time>
      </trkpt>
      <trkpt lat="42.95648" lon="0.79448">
        <ele>625.8</ele>
        <time>2025-01-21T14:04:56Z</time>
      </trkpt>
      <trkpt lat="42.95742" lon="0.79503">
        <ele>611.5</ele>
        <time>2025-01-21T14:04:56Z</time>
      </trkpt>
      <trkpt lat="42.95836" lon="0.79524">
        <ele>610.5</ele>
        <time>2025-01-21T14:04:56Z</time>
      </trkpt>
      <trkpt lat="42.95865" lon="0.79545">
        <ele>607.9</ele>
        <time>2025-01-21T14:04:56Z</time>
      </trkpt>
      <trkpt lat="42.95903" lon="0.7959">
        <ele>603.5</ele>
        <time>2025-01-21T14:04:56Z</time>
      </trkpt>
      <trkpt lat="42.95938" lon="0.79604">
        <ele>608.7</ele>
        <time>2025-01-21T14:04:56Z</time>
      </trkpt>
      <trkpt lat="42.95958" lon="0.79627">
        <ele>604.2</ele>
        <time>2025-01-21T14:04:56Z</time>
      </trkpt>
      <trkpt lat="42.95981" lon="0.79665">
        <ele>599.2</ele>
        <time>2025-01-21T14:04:56Z</time>
      </trkpt>
      <trkpt lat="42.95992" lon="0.79677">
        <ele>598.9</ele>
        <time>2025-01-21T14:04:56Z</time>
      </trkpt>
      <trkpt lat="42.96013" lon="0.79685">
        <ele>597.2</ele>
        <time>2025-01-21T14:04:56Z</time>
      </trkpt>
      <trkpt lat="42.96013" lon="0.79688">
        <ele>595.5</ele>
        <time>2025-01-21T14:04:56Z</time>
      </trkpt>
      <trkpt lat="42.96094" lon="0.79693">
        <ele>587.7</ele>
        <time>2025-01-21T14:04:56Z</time>
      </trkpt>
      <trkpt lat="42.96123" lon="0.79676">
        <ele>585.7</ele>
        <time>2025-01-21T14:04:56Z</time>
      </trkpt>
      <trkpt lat="42.96178" lon="0.79632">
        <ele>580.4</ele>
        <time>2025-01-21T14:04:56Z</time>
      </trkpt>
      <trkpt lat="42.96187" lon="0.79629">
        <ele>580</ele>
        <time>2025-01-21T14:04:56Z</time>
      </trkpt>
      <trkpt lat="42.96207" lon="0.79631">
        <ele>574.3</ele>
        <time>2025-01-21T14:04:56Z</time>
      </trkpt>
      <trkpt lat="42.96256" lon="0.79611">
        <ele>571.7</ele>
        <time>2025-01-21T14:04:56Z</time>
      </trkpt>
      <trkpt lat="42.96279" lon="0.79589">
        <ele>569.9</ele>
        <time>2025-01-21T14:04:56Z</time>
      </trkpt>
      <trkpt lat="42.96338" lon="0.79506">
        <ele>565</ele>
        <time>2025-01-21T14:04:56Z</time>
      </trkpt>
      <trkpt lat="42.96425" lon="0.79442">
        <ele>556.4</ele>
        <time>2025-01-21T14:04:56Z</time>
      </trkpt>
      <trkpt lat="42.96547" lon="0.79437">
        <ele>545.1</ele>
        <time>2025-01-21T14:04:56Z</time>
      </trkpt>
      <trkpt lat="42.96643" lon="0.79448">
        <ele>540.7</ele>
        <time>2025-01-21T14:04:56Z</time>
      </trkpt>
      <trkpt lat="42.96651" lon="0.79444">
        <ele>539.1</ele>
        <time>2025-01-21T14:04:56Z</time>
      </trkpt>
      <trkpt lat="42.96658" lon="0.79437">
        <ele>538.1</ele>
        <time>2025-01-21T14:04:56Z</time>
      </trkpt>
      <trkpt lat="42.96663" lon="0.79427">
        <ele>537</ele>
        <time>2025-01-21T14:04:56Z</time>
      </trkpt>
      <trkpt lat="42.96672" lon="0.79392">
        <ele>534.1</ele>
        <time>2025-01-21T14:04:56Z</time>
      </trkpt>
      <trkpt lat="42.96685" lon="0.79306">
        <ele>531</ele>
        <time>2025-01-21T14:04:56Z</time>
      </trkpt>
      <trkpt lat="42.96698" lon="0.79281">
        <ele>526.5</ele>
        <time>2025-01-21T14:04:56Z</time>
      </trkpt>
      <trkpt lat="42.96797" lon="0.79164">
        <ele>515.5</ele>
        <time>2025-01-21T14:04:56Z</time>
      </trkpt>
      <trkpt lat="42.96861" lon="0.79119">
        <ele>513.2</ele>
        <time>2025-01-21T14:04:56Z</time>
      </trkpt>
      <trkpt lat="42.96879" lon="0.79115">
        <ele>513</ele>
        <time>2025-01-21T14:04:56Z</time>
      </trkpt>
      <trkpt lat="42.96958" lon="0.79129">
        <ele>512.3</ele>
        <time>2025-01-21T14:04:56Z</time>
      </trkpt>
      <trkpt lat="42.97196" lon="0.79032">
        <ele>509</ele>
        <time>2025-01-21T14:04:56Z</time>
      </trkpt>
      <trkpt lat="42.97241" lon="0.78986">
        <ele>508.6</ele>
        <time>2025-01-21T14:04:56Z</time>
      </trkpt>
      <trkpt lat="42.97258" lon="0.78966">
        <ele>508</ele>
        <time>2025-01-21T14:04:56Z</time>
      </trkpt>
      <trkpt lat="42.97459" lon="0.78863">
        <ele>499.3</ele>
        <time>2025-01-21T14:04:56Z</time>
      </trkpt>
      <trkpt lat="42.97484" lon="0.78858">
        <ele>498.5</ele>
        <time>2025-01-21T14:04:56Z</time>
      </trkpt>
      <trkpt lat="42.97506" lon="0.78863">
        <ele>498.1</ele>
        <time>2025-01-21T14:04:56Z</time>
      </trkpt>
      <trkpt lat="42.97607" lon="0.78919">
        <ele>495.2</ele>
        <time>2025-01-21T14:04:56Z</time>
      </trkpt>
      <trkpt lat="42.97629" lon="0.7892">
        <ele>496</ele>
        <time>2025-01-21T14:04:56Z</time>
      </trkpt>
      <trkpt lat="42.97679" lon="0.78908">
        <ele>498.1</ele>
        <time>2025-01-21T14:04:56Z</time>
      </trkpt>
      <trkpt lat="42.9771" lon="0.78884">
        <ele>498.4</ele>
        <time>2025-01-21T14:04:56Z</time>
      </trkpt>
      <trkpt lat="42.97865" lon="0.78832">
        <ele>505.2</ele>
        <time>2025-01-21T14:04:56Z</time>
      </trkpt>
      <trkpt lat="42.98038" lon="0.78849">
        <ele>524.5</ele>
        <time>2025-01-21T14:04:56Z</time>
      </trkpt>
      <trkpt lat="42.98046" lon="0.78884">
        <ele>518.9</ele>
        <time>2025-01-21T14:04:56Z</time>
      </trkpt>
      <trkpt lat="42.98064" lon="0.78932">
        <ele>514</ele>
        <time>2025-01-21T14:04:56Z</time>
      </trkpt>
      <trkpt lat="42.98072" lon="0.78988">
        <ele>510</ele>
        <time>2025-01-21T14:04:56Z</time>
      </trkpt>
      <trkpt lat="42.98094" lon="0.79066">
        <ele>500.2</ele>
        <time>2025-01-21T14:04:56Z</time>
      </trkpt>
      <trkpt lat="42.98102" lon="0.79072">
        <ele>499.4</ele>
        <time>2025-01-21T14:04:56Z</time>
      </trkpt>
      <trkpt lat="42.98126" lon="0.79068">
        <ele>499.4</ele>
        <time>2025-01-21T14:04:56Z</time>
      </trkpt>
      <trkpt lat="42.98152" lon="0.7906">
        <ele>495.3</ele>
        <time>2025-01-21T14:04:56Z</time>
      </trkpt>
      <trkpt lat="42.9817" lon="0.7906">
        <ele>491.5</ele>
        <time>2025-01-21T14:04:56Z</time>
      </trkpt>
      <trkpt lat="42.98371" lon="0.79129">
        <ele>484</ele>
        <time>2025-01-21T14:04:56Z</time>
      </trkpt>
      <trkpt lat="42.98636" lon="0.79242">
        <ele>478.8</ele>
        <time>2025-01-21T14:04:56Z</time>
      </trkpt>
      <trkpt lat="42.98701" lon="0.7922">
        <ele>479.5</ele>
        <time>2025-01-21T14:04:56Z</time>
      </trkpt>
      <trkpt lat="42.98718" lon="0.79212">
        <ele>480.3</ele>
        <time>2025-01-21T14:04:56Z</time>
      </trkpt>
      <trkpt lat="42.98745" lon="0.79179">
        <ele>482</ele>
        <time>2025-01-21T14:04:56Z</time>
      </trkpt>
      <trkpt lat="42.98783" lon="0.79152">
        <ele>478.4</ele>
        <time>2025-01-21T14:04:56Z</time>
      </trkpt>
      <trkpt lat="42.9884" lon="0.79137">
        <ele>475.1</ele>
        <time>2025-01-21T14:04:56Z</time>
      </trkpt>
      <trkpt lat="42.99042" lon="0.79104">
        <ele>472.1</ele>
        <time>2025-01-21T14:04:56Z</time>
      </trkpt>
      <trkpt lat="42.99073" lon="0.79113">
        <ele>471.8</ele>
        <time>2025-01-21T14:04:56Z</time>
      </trkpt>
      <trkpt lat="42.99167" lon="0.79156">
        <ele>473.4</ele>
        <time>2025-01-21T14:04:56Z</time>
      </trkpt>
      <trkpt lat="42.99222" lon="0.7917">
        <ele>467.5</ele>
        <time>2025-01-21T14:04:56Z</time>
      </trkpt>
      <trkpt lat="42.99222" lon="0.79168">
        <ele>467.8</ele>
        <time>2025-01-21T14:04:56Z</time>
      </trkpt>
      <trkpt lat="43.00376" lon="0.79844">
        <ele>451.7</ele>
        <time>2025-01-21T14:04:56Z</time>
      </trkpt>
      <trkpt lat="43.00871" lon="0.79931">
        <ele>447.7</ele>
        <time>2025-01-21T14:04:56Z</time>
      </trkpt>
      <trkpt lat="43.0104" lon="0.79873">
        <ele>443.1</ele>
        <time>2025-01-21T14:04:56Z</time>
      </trkpt>
      <trkpt lat="43.01098" lon="0.79845">
        <ele>441.6</ele>
        <time>2025-01-21T14:04:56Z</time>
      </trkpt>
      <trkpt lat="43.0116" lon="0.7984">
        <ele>438.7</ele>
        <time>2025-01-21T14:04:56Z</time>
      </trkpt>
      <trkpt lat="43.01292" lon="0.7986">
        <ele>438.5</ele>
        <time>2025-01-21T14:04:56Z</time>
      </trkpt>
      <trkpt lat="43.01299" lon="0.79864">
        <ele>438.9</ele>
        <time>2025-01-21T14:04:56Z</time>
      </trkpt>
      <trkpt lat="43.01309" lon="0.79879">
        <ele>440.6</ele>
        <time>2025-01-21T14:04:56Z</time>
      </trkpt>
      <trkpt lat="43.01317" lon="0.79904">
        <ele>443.4</ele>
        <time>2025-01-21T14:04:56Z</time>
      </trkpt>
      <trkpt lat="43.01319" lon="0.79959">
        <ele>445.8</ele>
        <time>2025-01-21T14:04:56Z</time>
      </trkpt>
      <trkpt lat="43.01329" lon="0.79957">
        <ele>447.7</ele>
        <time>2025-01-21T14:04:56Z</time>
      </trkpt>
      <trkpt lat="43.01353" lon="0.79936">
        <ele>450.6</ele>
        <time>2025-01-21T14:04:56Z</time>
      </trkpt>
      <trkpt lat="43.01368" lon="0.79932">
        <ele>451.8</ele>
        <time>2025-01-21T14:04:56Z</time>
      </trkpt>
      <trkpt lat="43.01378" lon="0.79936">
        <ele>452.3</ele>
        <time>2025-01-21T14:04:56Z</time>
      </trkpt>
      <trkpt lat="43.01453" lon="0.80013">
        <ele>458.6</ele>
        <time>2025-01-21T14:04:56Z</time>
      </trkpt>
      <trkpt lat="43.0148" lon="0.80053">
        <ele>459.1</ele>
        <time>2025-01-21T14:04:56Z</time>
      </trkpt>
      <trkpt lat="43.01495" lon="0.80088">
        <ele>459.5</ele>
        <time>2025-01-21T14:04:56Z</time>
      </trkpt>
      <trkpt lat="43.01545" lon="0.8012">
        <ele>461.9</ele>
        <time>2025-01-21T14:04:56Z</time>
      </trkpt>
    </trkseg>
  </trk>
</gpx>